Home   Weather   35°30'N, 79°12'W   Past weeks
Flag for USA

Past Weather in 35°30'N, 79°12'W, USA — Yesterday and Last 2 Weeks

Now
32 °F

Mostly cloudy.


Feels Like: 29 °F
Forecast: 59 / 28 °F
Wind: 3 mph from North

Location: Raleigh-Durham International Airport

Current Time: Jan 23, 2019 at 12:27:24 am

Latest Report: Jan 22, 2019 at 11:51 pm


Visibility: 10 mi

Pressure: 30.58 "Hg

Humidity: 36%

Dew Point: 8 °F

Location of 35°30'N, 79°12'WLocation

Past Weather in 35°30'N, 79°12'W — Graph

°F

35°30'N, 79°12'W Temperature Yesterday

Maximum temperature yesterday: 39 °F (at 2:51 pm)
Minimum temperature yesterday: 17 °F (at 5:51 am)
Average temperature yesterday: 27 °F

High & Low Weather Summary for the Past Weeks

 TemperatureHumidityPressure
High67 °F (Jan 8, 2:51 pm)100% (Jan 13, 9:51 am)30.74 "Hg (Jan 13, 9:51 am)
Low17 °F (Jan 21, 7:51 am)18% (Jan 21, 4:51 pm)29.39 "Hg (Jan 20, 3:51 am)
Average39 °F67%30.16 "Hg
* Reported Jan 7 10:51 pm — Jan 22 10:51 pm, 35°30'N, 79°12'W. Weather by CustomWeather, © 2019

Note: Actual official high and low records may vary slightly from our data, if they occured in-between our weather recording intervals... More about our weather records

Advertising

35°30'N, 79°12'W Weather History for the Previous 24 Hours

Scroll right to see more
 ConditionsComfort  
Time TempWeatherWind HumidityBarometerVisibility
10:51 pm
Tue, Jan 22
32 °FPassing clouds.6 mph36%30.59 "Hg10 mi
9:51 pm29 °FPassing clouds.No wind41%30.62 "Hg10 mi
8:51 pm30 °FPassing clouds.5 mph38%30.62 "Hg10 mi
7:51 pm31 °FPassing clouds.5 mph33%30.62 "Hg10 mi
6:51 pm34 °FPassing clouds.5 mph28%30.61 "Hg10 mi
5:51 pm35 °FPassing clouds.5 mph24%30.60 "Hg10 mi
4:51 pm38 °FPassing clouds.7 mph22%30.61 "Hg10 mi
3:51 pm39 °FPassing clouds.7 mph21%30.63 "Hg10 mi
2:51 pm39 °FPassing clouds.5 mph22%30.63 "Hg10 mi
1:51 pm38 °FPassing clouds.3 mph23%30.65 "Hg10 mi
12:51 pm34 °FPassing clouds.3 mph25%30.68 "Hg10 mi
11:51 am32 °FPassing clouds.No wind27%30.72 "Hg10 mi
10:51 am28 °FPassing clouds.7 mph32%30.73 "Hg10 mi
9:51 am25 °FPassing clouds.6 mph38%30.74 "Hg10 mi
8:51 am22 °FScattered clouds.5 mph46%30.73 "Hg10 mi
7:51 am19 °FPartly sunny.5 mph52%30.70 "Hg10 mi
6:51 am18 °FPassing clouds.6 mph57%30.67 "Hg10 mi
5:51 am17 °FPassing clouds.6 mph62%30.65 "Hg10 mi
4:51 am19 °FPassing clouds.5 mph54%30.63 "Hg10 mi
3:51 am18 °FPassing clouds.3 mph59%30.63 "Hg10 mi
2:51 am19 °FPassing clouds.No wind59%30.63 "Hg10 mi
1:51 am18 °FPassing clouds.No wind68%30.61 "Hg10 mi
12:51 am18 °FPassing clouds.No wind71%30.60 "Hg10 mi
Weather by CustomWeather, © 2019

See weather overview